Wind_Speed
8 16 17 16 15 22 24 27 24 27 24 24 27 27 20 15 21 24 29 31 22 28 32 30 33 40 42 42 52 45 50 47 46 45 35 33 45 25 34 42 43 41 38 40
14 18 14 15 17 19 22 26 28 28 26 23 27 30 27 27 29 28 31 36 36 29 32 36 39 36 41 39 33 47 49 44 43 37 30 31 33 46 31 38 30 34 32 35
19 17 17 19 20 21 23 27 25 25 27 26 26 33 34 34 31 32 32 34 35 42 35 34 34 33 35 40 38 33 44 41 37 37 31 29 30 29 49 38 33 30 26 27
18 17 20 21 22 19 20 20 22 25 24 23 21 23 36 35 36 35 38 39 33 40 39 34 31 33 37 42 41 38 36 43 38 40 33 32 31 33 35 47 54 41 58 48
27 25 25 25 25 23 29 24 26 25 26 29 28 27 44 35 35 39 35 33 32 28 34 40 39 36 37 42 40 37 36 33 36 37 36 39 42 43 38 41 53 51 41 51
27 23 24 24 26 27 29 28 25 28 27 18 32 29 39 40 27 21 26 35 35 36 34 29 30 33 38 42 40 37 36 36 40 43 40 38 41 44 47 47 51 53 61 49
28 29 26 29 35 32 24 30 15 14 11 16 32 28 35 27 30 27 17 18 28 35 30 26 26 30 30 30 33 34 36 30 24 36 42 41 41 40 39 41 42 43 50 57
28 24 20 23 26 27 23 31 20 12 6 15 29 20 31 26 23 26 10 18 12 16 21 22 24 27 30 28 29 28 21 25 28 20 26 38 38 40 43 43 46 43 43 37
29 32 32 33 33 26 24 21 25 20 27 8 15 31 32 25 21 19 24 8 10 21 24 23 14 22 23 24 22 16 20 26 30 28 23 24 34 39 43 45 46 46 43 40
29 37 23 23 24 29 25 28 24 15 4 7 11 21 19 18 24 15 14 20 26 19 17 19 25 22 25 25 25 30 31 29 29 28 30 25 24 29 33 38 42 43 47 51
28 30 32 26 23 24 24 26 27 17 15 4 4 10 14 17 14 11 20 22 15 12 16 20 20 28 27 28 26 26 26 26 27 29 33 36 26 22 26 32 34 37 39 42
25 29 36 30 26 21 24 22 15 5 6 8 10 20 22 29 18 14 21 15 22 22 17 20 22 25 24 22 26 32 35 30 30 32 33 36 36 37 29 25 31 33 36 37
27 17 17 11 14 17 22 25 24 26 28 21 8 6 6 15 20 23 25 24 28 39 24 28 32 23 26 30 34 33 30 27 31 34 35 34 38 42 37 24 23 29 34 35
23 23 23 16 24 28 31 30 26 24 13 21 18 23 29 16 21 24 23 23 28 25 34 28 31 21 25 32 30 30 29 32 34 34 34 39 41 44 45 41 29 23 24 29
19 17 19 24 29 29 25 29 32 32 32 29 36 33 30 25 27 31 27 24 31 28 24 25 35 29 24 29 30 32 35 32 38 39 40 44 45 47 48 48 48 41 32 29
27 17 17 27 22 25 31 30 30 31 32 35 30 38 26 25 21 15 19 22 17 22 26 17 18 30 37 38 29 36 35 33 35 40 44 49 54 51 52 48 49 49 40 31
20 19 17 27 18 21 22 25 22 27 29 24 22 20 19 29 31 25 25 25 23 32 34 34 31 25 28 32 33 31 34 38 41 45 50 53 49 51 55 55 53 52 46 38
15 14 13 20 20 3 11 15 18 14 9 6 14 17 14 15 18 16 18 21 24 25 32 37 37 32 35 42 45 45 48 50 52 55 54 56 56 59 60 62 65 58 52 50
16 16 13 5 8 18 16 8 14 14 13 9 17 10 20 24 26 23 18 24 28 31 35 37 38 42 46 47 52 54 56 58 59 62 61 60 61 62 65 65 66 61 54 53
6 9 15 10 4 3 5 12 15 18 19 12 21 33 36 37 40 39 37 38 38 39 42 45 46 51 55 56 58 60 61 57 58 60 62 61 60 58 58 56 58 62 59 56
7 8 10 11 9 8 15 18 24 7 16 35 37 41 43 42 42 48 48 49 47 53 54 52 55 57 57 53 51 55 58 61 59 63 69 71 66 64 64 62 65 67 65 59
4 3 4 4 4 5 11 25 22 27 34 40 41 44 48 51 54 55 57 58 57 56 56 56 59 58 52 53 56 59 59 58 61 61 66 68 71 73 76 76 75 72 70 65
3 9 8 6 10 25 21 29 31 36 38 41 46 50 50 51 52 54 57 57 55 53 52 53 55 57 58 56 50 51 50 47 48 52 49 47 48 54 58 61 68 73 73 73
12 12 15 21 9 25 26 28 30 34 41 46 39 42 46 53 53 46 39 37 37 41 47 48 48 44 38 33 35 37 37 39 39 35 31 38 39 43 48 51 52 56 58 52
17 18 21 25 24 33 25 32 37 48 40 38 42 47 51 51 41 36 37 34 32 28 24 23 25 27 29 29 31 29 27 29 22 27 26 26 31 46 47 47 54 42 48 48
12 17 24 31 32 32 35 36 44 40 40 45 49 50 44 40 34 30 27 25 27 24 21 21 23 27 29 27 22 16 17 21 21 20 26 23 33 21 9 32 46 47 43 49
Wind_Direction
238 257 266 279 278 275 277 280 288 280 290 302 293 293 282 283 258 252 248 248 256 256 240 248 250 248 245 246 242 243 250 255 255 255 252 265 262 230 235 239 239 239 245 243
269 257 263 264 269 278 286 290 290 291 293 292 288 286 284 277 273 265 259 252 247 254 252 247 250 255 260 258 254 243 243 250 255 252 248 250 256 251 230 239 244 241 237 245
262 272 283 277 280 284 268 280 293 285 291 283 288 287 283 276 275 273 271 267 271 249 248 241 242 248 257 261 263 260 240 239 246 248 249 241 242 237 241 231 252 237 228 229
266 278 279 282 284 272 280 280 282 286 295 302 299 302 288 281 278 271 264 266 266 260 242 245 241 248 253 254 251 250 251 243 244 232 240 240 236 244 249 248 246 247 237 241
269 272 278 282 280 279 275 274 269 283 287 292 289 282 279 278 279 281 278 272 264 249 237 239 242 242 244 243 242 244 248 255 244 236 232 235 239 244 246 247 247 237 251 254
266 277 268 274 270 266 274 282 270 265 271 274 272 267 273 277 280 282 279 276 271 230 219 222 227 236 235 239 249 256 257 255 256 245 238 238 241 246 247 248 253 246 236 250
278 276 285 286 274 271 262 277 268 270 255 259 272 265 261 265 287 307 300 313 229 210 211 217 217 224 236 250 262 269 272 258 247 244 244 246 249 247 249 244 247 253 248 245
278 285 286 280 285 307 272 258 250 251 238 268 279 262 266 286 281 289 295 271 252 205 205 213 229 240 249 257 261 269 281 291 290 282 251 241 242 243 246 244 243 243 246 242
299 287 282 281 276 287 308 290 263 285 280 270 274 274 283 290 273 273 271 200 190 212 205 204 225 242 240 235 245 263 279 284 287 298 295 252 239 240 242 244 246 245 243 243
297 302 296 288 287 280 284 293 272 262 244 243 236 258 258 291 293 306 255 250 241 257 249 240 236 238 235 232 245 262 277 287 284 285 291 285 264 245 243 244 245 245 245 245
287 285 298 285 280 283 289 304 297 289 292 286 278 270 274 271 276 274 228 213 207 214 268 270 255 236 248 256 261 262 266 279 280 279 288 293 282 268 258 249 249 250 247 247
287 275 286 279 272 267 274 292 291 304 291 292 273 263 260 289 300 290 254 286 244 228 221 224 223 241 251 254 255 260 269 268 269 276 281 288 292 289 281 261 247 253 255 251
285 284 291 289 275 266 278 285 292 302 301 264 279 270 234 268 274 282 268 289 265 245 267 257 233 223 243 249 257 263 272 257 263 271 275 280 276 275 279 269 263 249 248 254
297 280 255 260 274 284 290 284 292 282 248 267 263 297 311 279 289 290 292 281 282 264 272 275 277 279 256 263 260 259 257 255 257 258 264 264 278 282 286 288 285 261 257 252
311 289 278 274 280 281 288 285 290 282 290 263 278 276 296 301 289 282 293 286 277 277 280 279 285 268 267 253 254 255 259 260 257 260 261 265 270 275 283 284 283 282 268 271
284 297 300 293 296 290 287 286 287 281 287 284 289 278 285 276 274 265 265 276 283 256 258 261 271 248 254 253 250 251 246 247 250 259 264 270 268 269 276 280 281 280 268 262
279 278 286 290 301 304 295 289 294 296 287 289 292 291 294 290 290 298 282 283 285 277 262 254 248 256 256 256 250 247 250 253 255 256 260 266 262 260 268 274 281 280 274 265
270 279 277 281 304 274 296 309 318 314 331 300 286 297 308 318 312 304 271 293 280 282 279 267 252 254 259 259 260 262 257 259 260 263 261 262 259 259 262 265 268 276 267 262
242 252 261 258 272 279 310 314 346 324 320 1 352 338 331 315 296 286 275 264 267 271 274 273 272 267 268 270 269 270 271 273 273 273 271 267 264 263 261 265 269 269 260 258
243 245 244 250 267 266 338 324 334 320 281 266 314 319 315 308 303 298 295 290 280 268 269 272 277 277 274 274 273 273 273 271 270 270 269 269 268 266 266 265 263 262 260 258
267 272 251 267 256 273 271 305 322 304 306 309 311 309 307 304 299 297 294 290 284 283 286 287 287 282 276 280 281 280 278 277 275 269 267 264 260 261 261 261 260 265 267 265
289 282 267 289 253 274 311 337 343 318 314 309 309 308 305 302 299 296 293 291 287 284 282 280 279 281 283 287 291 284 280 277 275 276 273 271 267 262 255 253 254 257 262 261
290 343 313 288 269 299 308 314 316 312 308 309 308 304 301 299 298 297 294 290 287 286 286 282 284 283 288 292 286 283 282 282 279 276 279 279 279 267 262 257 253 251 249 248
319 301 285 292 297 297 305 305 307 309 312 311 305 304 309 310 306 303 305 305 296 286 284 285 283 285 284 283 286 289 288 285 283 282 288 302 299 294 285 266 255 251 244 239
293 298 302 303 310 312 322 321 325 323 323 321 318 319 317 312 307 309 307 307 307 308 303 296 289 286 295 299 301 298 294 301 319 323 331 310 290 289 275 244 229 224 212 213
297 302 317 318 320 317 321 323 332 329 331 327 322 317 314 310 312 308 309 316 316 313 310 297 290 293 302 305 304 295 303 319 351 350 335 328 311 303 251 186 187 198 185 174
Height
3100 3102 3100 3100 3100 3100 3100 3099 3096 3094 3094 3094 3092 3092 3092 3093 3093 3093 3093 3094 3095 3098 3100 3098 3099 3102 3105 3107 3108 3111 3113 3113 3115 3118 3122 3123 3120 3134 3139 3143 3144 3145 3148 3151
3099 3097 3097 3097 3098 3098 3096 3094 3091 3090 3091 3092 3087 3085 3085 3086 3087 3086 3086 3088 3089 3090 3093 3091 3090 3093 3093 3096 3099 3102 3105 3105 3105 3109 3112 3114 3115 3118 3125 3134 3137 3137 3141 3145
3096 3095 3095 3095 3094 3093 3092 3091 3089 3089 3086 3085 3084 3079 3077 3078 3079 3079 3079 3080 3080 3080 3082 3083 3083 3084 3086 3087 3090 3093 3096 3098 3099 3100 3104 3107 3109 3111 3118 3120 3126 3130 3133 3135
3091 3092 3092 3090 3089 3089 3086 3088 3086 3084 3081 3078 3084 3076 3073 3072 3071 3071 3070 3071 3068 3070 3072 3075 3075 3075 3077 3079 3080 3083 3086 3091 3094 3094 3097 3100 3103 3104 3107 3114 3116 3116 3117 3127
3087 3087 3087 3085 3084 3085 3081 3082 3081 3079 3076 3073 3077 3079 3059 3067 3064 3064 3062 3060 3060 3060 3062 3065 3067 3068 3069 3070 3071 3075 3081 3084 3086 3087 3090 3093 3096 3098 3100 3101 3105 3108 3116 3122
3082 3082 3082 3079 3079 3079 3078 3077 3074 3074 3071 3066 3067 3072 3057 3059 3061 3055 3054 3052 3050 3051 3052 3054 3060 3061 3061 3062 3066 3069 3072 3077 3079 3079 3081 3084 3086 3089 3092 3094 3092 3093 3102 3110
3074 3073 3075 3075 3071 3071 3072 3072 3067 3067 3066 3057 3062 3058 3051 3052 3054 3052 3048 3042 3037 3041 3044 3050 3054 3056 3057 3059 3059 3060 3062 3065 3068 3068 3070 3072 3075 3077 3080 3083 3084 3086 3093 3095
3068 3066 3070 3070 3067 3067 3063 3063 3062 3060 3060 3050 3054 3046 3042 3047 3046 3048 3049 3046 3046 3043 3043 3046 3050 3052 3054 3055 3054 3053 3053 3054 3057 3059 3059 3061 3063 3065 3068 3071 3075 3078 3080 3082
3060 3057 3061 3061 3060 3062 3057 3056 3056 3049 3052 3048 3046 3039 3038 3038 3039 3039 3040 3042 3043 3040 3042 3044 3044 3045 3047 3047 3046 3047 3048 3049 3050 3050 3050 3052 3055 3056 3059 3062 3064 3066 3069 3072
3056 3047 3053 3054 3054 3052 3053 3053 3049 3045 3048 3046 3039 3032 3032 3032 3032 3033 3032 3037 3038 3040 3039 3041 3044 3043 3043 3043 3043 3044 3044 3044 3044 3044 3044 3046 3046 3049 3049 3050 3051 3054 3057 3061
3053 3049 3047 3048 3049 3046 3046 3045 3045 3043 3044 3036 3034 3026 3028 3028 3026 3029 3030 3031 3032 3033 3037 3036 3038 3039 3039 3039 3039 3039 3037 3037 3037 3037 3036 3034 3038 3039 3041 3041 3042 3042 3045 3048
3050 3046 3039 3040 3041 3042 3042 3039 3039 3042 3039 3036 3031 3022 3025 3026 3026 3024 3027 3028 3028 3026 3024 3026 3028 3032 3032 3032 3032 3031 3031 3030 3030 3029 3028 3027 3027 3028 3030 3034 3035 3035 3035 3037
3045 3042 3036 3031 3036 3037 3035 3036 3035 3035 3036 3030 3028 3020 3022 3019 3017 3020 3021 3022 3023 3023 3021 3020 3021 3018 3026 3026 3025 3024 3023 3022 3023 3022 3020 3020 3020 3019 3020 3022 3024 3026 3027 3029
3039 3035 3034 3032 3031 3034 3031 3029 3029 3027 3025 3024 3018 3010 3014 3014 3015 3014 3013 3013 3014 3016 3017 3016 3014 3013 3015 3017 3016 3015 3014 3014 3014 3013 3013 3012 3012 3009 3008 3011 3013 3017 3019 3021
3032 3030 3030 3027 3025 3024 3022 3022 3020 3020 3017 3014 3009 3010 3007 3009 3008 3007 3005 3006 3005 3006 3008 3010 3008 3007 3005 3007 3007 3007 3006 3006 3006 3005 3004 3003 3003 3001 3001 3002 3002 3006 3009 3009
3027 3023 3024 3020 3021 3020 3016 3013 3012 3011 3009 3004 3001 2998 3005 3002 3001 2998 2999 3000 2998 2999 2999 2999 2997 2996 2996 2994 2995 2996 2995 2995 2995 2994 2992 2992 2991 2990 2990 2990 2989 2989 2992 2997
3022 3021 3021 3012 3016 3014 3009 3004 3005 3004 3002 3000 2997 2997 2995 2994 2993 2992 2992 2992 2993 2990 2989 2987 2984 2982 2983 2984 2984 2984 2983 2983 2982 2981 2981 2979 2977 2976 2975 2977 2977 2975 2976 2981
3017 3018 3019 3012 3012 3012 3004 3001 3000 2998 2996 2995 2993 2992 2992 2989 2987 2985 2986 2987 2982 2977 2976 2975 2974 2973 2974 2973 2972 2971 2970 2968 2967 2965 2964 2965 2964 2964 2963 2962 2962 2965 2964 2965
3014 3015 3015 3013 3010 3006 3001 2999 2998 2995 2995 2991 2989 2986 2985 2982 2979 2979 2980 2978 2973 2969 2967 2964 2964 2964 2960 2959 2957 2954 2951 2949 2946 2944 2944 2945 2945 2944 2945 2944 2944 2948 2951 2953
3011 3012 3013 3010 3009 3005 3000 2996 2995 2992 2988 2987 2986 2983 2979 2975 2969 2967 2967 2964 2962 2959 2956 2954 2952 2947 2943 2939 2938 2934 2931 2928 2925 2924 2922 2921 2922 2923 2924 2925 2926 2928 2932 2936
3008 3008 3007 3006 3005 3001 2995 2994 2993 2992 2990 2981 2978 2974 2969 2964 2961 2953 2950 2947 2946 2942 2939 2937 2932 2926 2922 2922 2919 2913 2910 2906 2906 2903 2899 2898 2900 2900 2902 2906 2907 2907 2909 2914
3007 3006 3005 3003 3002 2999 2993 2991 2991 2988 2982 2975 2969 2963 2955 2951 2945 2940 2934 2929 2926 2924 2921 2917 2910 2907 2907 2904 2900 2892 2887 2886 2881 2877 2875 2872 2870 2870 2875 2879 2884 2887 2890 2894
3006 3006 3004 3004 3000 2997 2994 2989 2986 2980 2973 2967 2959 2953 2945 2937 2930 2924 2916 2911 2908 2905 2901 2896 2892 2890 2890 2887 2880 2871 2868 2865 2859 2854 2849 2845 2841 2839 2841 2844 2853 2860 2867 2873
3004 3003 3001 2998 2997 2992 2990 2986 2981 2974 2965 2957 2949 2941 2934 2922 2915 2907 2901 2895 2889 2886 2882 2881 2878 2877 2874 2872 2867 2860 2853 2847 2841 2835 2832 2825 2817 2811 2810 2815 2824 2832 2843 2852
3000 2998 2995 2992 2990 2984 2981 2977 2968 2959 2952 2944 2937 2929 2919 2908 2902 2896 2890 2885 2879 2875 2872 2870 2867 2866 2863 2859 2853 2847 2840 2835 2829 2823 2817 2810 2800 2786 2775 2780 2798 2810 2823 2838
2996 2994 2992 2987 2984 2980 2975 2968 2961 2950 2942 2934 2924 2915 2908 2898 2893 2887 2882 2878 2873 2869 2866 2864 2862 2858 2855 2850 2844 2841 2837 2832 2826 2819 2810 2800 2789 2770 2757 2760 2783 2802 2817 2835